Home > Time Zones > World Clock > Weather > Norway > Ski > Past weeks

Flag for Norway Weather past 2 weeks in Ski, Norway

Now
48 °F

Overcast.


Feels Like: 42 °F
Forecast: 38 / 57 °F
Wind: 16 mph from Northwest

Location: Oslo / Fornebu

Current Time: Apr 18, 2015 at 11:29:50 AM

Latest Report: Apr 18, 2015 at 10:50 AM


Visibility: N/A

Pressure: 30.45 "Hg

Humidity: 87%

Dew point: 45 °F

Location of SkiLocation

Historic Weather in Ski — Graph

°F

Ski temperature yesterday

Maximum temperature yesterday: 46 °F (at 5:50 PM)
Minimum temperature yesterday: 41 °F (at 12:20 AM)
Average temperature yesterday: 43 °F

Past Weeks' High & Low Weather Summary

 TemperatureHumidityPressure
High50 °F (Apr 10, 12:20 PM)100% (Apr 4, 10:20 PM)30.48 "Hg (Apr 4, 10:20 PM)
Low37 °F (Apr 3, 5:50 PM)42% (Apr 13, 10:20 AM)29.42 "Hg (Apr 11, 8:20 AM)
Average44 °F80%30.01 "Hg
* Reported Apr 3 10:20 AM — Apr 18 10:20 AM, Ski, Weather by CustomWeather, © 2015

Note: Actual official high and low records may vary slightly from our data, if they occured in-between our weather recording intervals... More about our weather records

Advertising

Ski weather history for previous 24 hours

 ConditionsComfort  
Time TempWeatherWind HumidityBarometerVisibility
10:20 AM
Sat, Apr 18
48 °FOvercast.17 mph87%30.45 "HgN/A
9:50 AM48 °FOvercast.16 mph87%30.45 "HgN/A
9:20 AM48 °FOvercast.17 mph87%30.45 "HgN/A
8:50 AM46 °FPartly sunny.16 mph93%30.45 "HgN/A
8:20 AM46 °FPartly sunny.15 mph93%30.45 "HgN/A
7:50 AM46 °FOvercast.14 mph93%30.45 "HgN/A
7:20 AM46 °FOvercast.14 mph87%30.45 "HgN/A
6:50 AM46 °FPassing clouds.12 mph76%30.42 "HgN/A
6:20 AM46 °FOvercast.10 mph76%30.42 "HgN/A
5:50 AM46 °FPassing clouds.9 mph76%30.42 "HgN/A
5:20 AM46 °FPassing clouds.9 mph71%30.42 "HgN/A
4:50 AM46 °FPassing clouds.9 mph76%30.42 "HgN/A
4:20 AM46 °FPassing clouds.12 mph71%30.42 "HgN/A
3:50 AM46 °FOvercast.12 mph76%30.45 "HgN/A
3:20 AM46 °FPassing clouds.7 mph76%30.42 "HgN/A
2:50 AM46 °FOvercast.7 mph82%30.42 "HgN/A
2:20 AM46 °FOvercast.8 mph76%30.42 "HgN/A
1:50 AM46 °FPassing clouds.6 mph76%30.42 "HgN/A
1:20 AM46 °FOvercast.5 mph76%30.42 "HgN/A
12:50 AM45 °FPassing clouds.3 mph76%30.42 "HgN/A
12:20 AM45 °FOvercast.5 mph76%30.39 "HgN/A
11:50 PM
Fri, Apr 17
45 °FOvercast.5 mph76%30.42 "HgN/A
11:20 PM45 °FOvercast.6 mph76%30.42 "HgN/A
10:50 PM45 °FOvercast.7 mph76%30.39 "HgN/A
10:20 PM45 °FOvercast.8 mph76%30.39 "HgN/A
9:50 PM45 °FOvercast.12 mph71%30.39 "HgN/A
9:20 PM45 °FOvercast.9 mph71%30.39 "HgN/A
8:50 PM45 °FPartly sunny.6 mph71%30.39 "HgN/A
8:20 PM45 °FPartly sunny.8 mph66%30.36 "HgN/A
7:50 PM45 °FPartly sunny.8 mph66%30.36 "HgN/A
7:20 PM45 °FPartly sunny.8 mph66%30.36 "HgN/A
6:50 PM45 °FPartly sunny.9 mph66%30.33 "HgN/A
6:20 PM45 °FQuite cool.6 mph66%30.33 "HgN/A
5:50 PM46 °FScattered clouds.5 mph62%30.33 "HgN/A
5:20 PM45 °FPartly sunny.6 mph61%30.33 "HgN/A
4:50 PM43 °FPartly sunny.7 mph66%30.33 "HgN/A
4:20 PM45 °FPartly sunny.7 mph61%30.33 "HgN/A
3:50 PM43 °FPassing clouds.7 mph61%30.33 "HgN/A
3:20 PM45 °FPassing clouds.7 mph61%30.33 "HgN/A
2:50 PM45 °FQuite cool.7 mph57%30.30 "HgN/A
2:20 PM43 °FQuite cool.8 mph61%30.30 "HgN/A
1:50 PM43 °FQuite cool.9 mph61%30.30 "HgN/A
1:20 PM43 °FQuite cool.8 mph61%30.30 "HgN/A
12:50 PM43 °FPartly sunny.8 mph61%30.27 "HgN/A
12:20 PM43 °FPartly sunny.9 mph61%30.27 "HgN/A
11:50 AM43 °FPartly sunny.9 mph61%30.27 "HgN/A
11:20 AM43 °FPartly sunny.9 mph61%30.27 "HgN/A
Weather by CustomWeather, © 2015

See weather overviewHow to use our weather pages